Regional Weather Roundup
Issued by NWS Cleveland, OH

Home | Current Version | Previous Version | Graphics & Text | Print | Product List | Glossary On
Versions: 1 2 3 4 5 6 7 8 9 10 11 12 13 14 15 16 17 18 19 20 21 22 23 24 25 26 27 28 29 30 31 32 33 34 35 36 37 38 39 40 41 42 43 44 45 46 47 48 49 50
000
ASUS41 KCLE 152310
RWRCLE
OHIO REGIONAL WEATHER ROUNDUP
NATIONAL WEATHER SERVICE CLEVELAND, OH
600 PM EST MON JAN 15 2018

NOTE: "FAIR" INDICATES FEW OR NO CLOUDS BELOW 12,000 FEET WITH NO
SIGNIFICANT WEATHER AND/OR OBSTRUCTIONS TO VISIBILITY.

OHZ001>008-015>018-024>027-034-035-043-044-160000-
   NORTHWEST OHIO

CITY           SKY/WX    TMP DP  RH WIND       PRES   REMARKS
DEFIANCE       LGT SNOW  23  19  85 S6        30.24R FOG     WCI  16
FINDLAY        LGT SNOW  25  20  81 SW7       30.23R WCI  17
TOLEDO EXPRESS FLURRIES  22  21  96 SE3       30.23R
TOLEDO EXEC    LGT SNOW  23  20  88 S6        30.25R FOG     WCI  16
LIMA           LGT SNOW  24  21  88 SW13      30.23R FOG     WCI  12
$$

OHZ009>014-019>023-028>033-038-089-160000-
   NORTHEAST OHIO

CITY           SKY/WX    TMP DP  RH WIND       PRES   REMARKS
CLE-HOPKINS    LGT SNOW  26  23  88 S6        30.28S FOG     WCI  19
CLE-LAKEFRONT  LGT SNOW  26  22  84 SE10      30.27S FOG     WCI  16
CUY CO. ARPT   LGT SNOW  25  23  93 S13       30.27R VSB 1   WCI  13
LORAIN-ELYRIA  LGT SNOW  23  18  81 S7        30.26S WCI  15
ASHTABULA      LGT SNOW  23  19  85 S9        30.28R FOG     WCI  13
AKRON-CANTON   LGT SNOW  25  21  85 S12       30.25R VSB 3/4 WCI  14
WOOSTER        LGT SNOW  24  22  91 S8        30.25S FOG     WCI  15
MANSFIELD      FLURRIES  24  21  88 S8        30.23R WCI  15
YOUNGSTOWN     LGT SNOW  23  19  85 SE8       30.25S FOG     WCI  14
$$

OHZ042-051>053-060>062-070>072-077>081-160000-
  SOUTHWEST OHIO

CITY           SKY/WX    TMP DP  RH WIND       PRES   REMARKS
CINC-COVINGTON LGT SNOW  28  26  92 SW7       30.28R FOG     WCI  21
CINC-LUNKEN    LGT SNOW  29  26  89 SW7       30.31S FOG     WCI  22
HAMILTON       CLOUDY    29  25  85 W8        30.30S WCI  21
DAYTON         CLOUDY    25  23  92 W14       30.26R WCI  13
WRIGHT-PAT AFB CLOUDY    27  22  82 SW10        N/A  WCI  17
DAYTON GENERAL CLOUDY    27  23  85 SW8       30.26R WCI  19
WILMINGTON     LGT SNOW  26  25  96 SW15      30.26R FOG     WCI  14
$$

OHZ036-037-039>041-045>050-054>059-063>069-073>076-082>088-160000-
  CENTRAL AND SOUTHEAST OHIO

CITY           SKY/WX    TMP DP  RH WIND       PRES   REMARKS
COLUMBUS       SNOW      27  25  92 S6        30.28R VSB 1/2 WCI  20
OSU AIRPORT    LGT SNOW  26  25  96 S8        30.27R VSB 3/4 WCI  18
BOLTON FIELD   LGT SNOW  27  25  93 S5        30.27R VSB 1   WCI  21
RICKENBACK AFB LGT SNOW  26  26 100 SW5       30.28R VSB 3/4 WCI  21
NEWARK         LGT SNOW  27  24  89 CALM      30.27R
MARION         CLOUDY    25  21  85 S13       30.25R WCI  14
LANCASTER      LGT SNOW  27  24  89 CALM      30.28R FOG
ZANESVILLE     CLOUDY    27  24  89 CALM      30.27R
NEW PHILLY     NOT AVBL
$$




USA.gov is the U.S. government's official web portal to all federal, state and local government web resources and services.